QPF
0.00 0.01 0.03 0.03 0.10 0.13 0.07 0.02 0.03 0.02 0.01 0.00 0.00 0.01 0.02 0.02 0.05 0.07 0.08 0.06 0.04 0.05 0.06 0.08 0.14 0.15 0.11 0.11 0.08 0.05 0.05 0.06 0.05 0.07 0.08 0.07 0.09 0.11 0.12 0.10 0.08 0.10 0.12 0.12 0.12 0.15 0.21 0.18 0.15
0.02 0.04 0.04 0.07 0.14 0.11 0.07 0.03 0.02 0.01 0.00 0.00 0.00 0.00 0.00 0.01 0.02 0.05 0.07 0.06 0.06 0.06 0.06 0.08 0.12 0.11 0.09 0.07 0.06 0.05 0.05 0.05 0.06 0.08 0.17 0.19 0.18 0.17 0.12 0.09 0.08 0.10 0.11 0.12 0.12 0.14 0.20 0.18 0.16
0.02 0.04 0.06 0.13 0.10 0.06 0.05 0.04 0.01 0.00 0.00 0.00 0.00 0.01 0.00 0.02 0.03 0.04 0.05 0.06 0.06 0.04 0.04 0.06 0.09 0.09 0.11 0.11 0.07 0.07 0.06 0.05 0.06 0.09 0.19 0.27 0.25 0.19 0.11 0.12 0.12 0.11 0.11 0.12 0.12 0.15 0.19 0.19 0.17
0.01 0.03 0.05 0.09 0.06 0.03 0.02 0.03 0.01 0.01 0.00 0.00 0.01 0.01 0.01 0.02 0.03 0.03 0.02 0.03 0.03 0.04 0.03 0.03 0.05 0.09 0.12 0.17 0.13 0.09 0.07 0.05 0.06 0.10 0.14 0.20 0.23 0.24 0.19 0.17 0.16 0.14 0.15 0.17 0.15 0.17 0.19 0.21 0.23
0.03 0.07 0.11 0.07 0.03 0.01 0.01 0.00 0.00 0.01 0.01 0.00 0.00 0.01 0.03 0.02 0.02 0.02 0.01 0.02 0.02 0.03 0.03 0.02 0.03 0.06 0.11 0.19 0.25 0.19 0.10 0.07 0.07 0.09 0.12 0.15 0.19 0.22 0.21 0.16 0.18 0.21 0.22 0.22 0.19 0.18 0.21 0.23 0.26
0.06 0.08 0.11 0.05 0.02 0.01 0.00 0.00 0.00 0.01 0.01 0.00 0.00 0.00 0.02 0.02 0.02 0.01 0.01 0.01 0.01 0.02 0.03 0.03 0.03 0.03 0.07 0.14 0.19 0.18 0.13 0.09 0.08 0.06 0.08 0.11 0.19 0.23 0.18 0.19 0.23 0.33 0.34 0.31 0.25 0.23 0.22 0.25 0.33
0.06 0.07 0.05 0.01 0.01 0.01 0.00 0.00 0.00 0.02 0.02 0.01 0.00 0.01 0.01 0.02 0.01 0.01 0.02 0.03 0.01 0.01 0.02 0.03 0.04 0.02 0.05 0.11 0.15 0.16 0.13 0.09 0.08 0.07 0.08 0.14 0.26 0.24 0.17 0.20 0.25 0.32 0.47 0.46 0.32 0.27 0.27 0.33 0.36
0.03 0.03 0.02 0.01 0.01 0.01 0.00 0.00 0.00 0.01 0.01 0.00 0.00 0.01 0.01 0.01 0.00 0.01 0.03 0.05 0.02 0.02 0.02 0.02 0.04 0.04 0.05 0.07 0.12 0.13 0.11 0.10 0.09 0.09 0.10 0.14 0.26 0.35 0.29 0.24 0.24 0.24 0.35 0.51 0.32 0.23 0.21 0.21 0.26
0.02 0.04 0.02 0.00 0.00 0.01 0.00 0.00 0.00 0.00 0.00 0.00 0.00 0.02 0.01 0.00 0.00 0.02 0.05 0.05 0.04 0.03 0.03 0.03 0.03 0.03 0.04 0.05 0.07 0.09 0.08 0.09 0.10 0.11 0.11 0.12 0.19 0.29 0.30 0.24 0.28 0.29 0.39 0.49 0.24 0.17 0.14 0.24 0.22
0.02 0.04 0.01 0.00 0.00 0.00 0.00 0.00 0.01 0.00 0.00 0.00 0.01 0.02 0.01 0.00 0.01 0.03 0.06 0.06 0.05 0.04 0.03 0.03 0.05 0.03 0.02 0.03 0.06 0.09 0.08 0.09 0.11 0.12 0.09 0.09 0.13 0.21 0.24 0.26 0.28 0.34 0.41 0.36 0.19 0.15 0.13 0.26 0.23
0.01 0.01 0.00 0.00 0.00 0.00 0.00 0.00 0.01 0.01 0.01 0.01 0.01 0.01 0.00 0.00 0.02 0.04 0.07 0.09 0.07 0.05 0.06 0.06 0.08 0.06 0.06 0.07 0.06 0.07 0.07 0.07 0.09 0.09 0.11 0.11 0.11 0.16 0.16 0.19 0.21 0.25 0.32 0.25 0.18 0.18 0.18 0.19 0.22
0.00 0.00 0.00 0.00 0.00 0.00 0.00 0.00 0.01 0.01 0.01 0.01 0.02 0.01 0.00 0.01 0.02 0.03 0.07 0.10 0.09 0.07 0.05 0.06 0.04 0.05 0.08 0.06 0.05 0.04 0.04 0.05 0.08 0.11 0.12 0.10 0.11 0.19 0.18 0.14 0.15 0.22 0.27 0.23 0.18 0.18 0.24 0.18 0.14
0.01 0.00 0.00 0.00 0.00 0.00 0.00 0.01 0.01 0.01 0.01 0.01 0.01 0.00 0.00 0.01 0.01 0.02 0.05 0.06 0.06 0.05 0.05 0.05 0.04 0.04 0.06 0.07 0.06 0.03 0.04 0.05 0.07 0.08 0.10 0.12 0.14 0.20 0.21 0.17 0.17 0.23 0.22 0.18 0.15 0.13 0.20 0.23 0.18
0.00 0.00 0.00 0.00 0.00 0.00 0.01 0.01 0.01 0.01 0.01 0.01 0.01 0.00 0.00 0.01 0.01 0.01 0.02 0.03 0.03 0.04 0.04 0.04 0.03 0.03 0.04 0.07 0.08 0.07 0.06 0.06 0.06 0.06 0.06 0.08 0.09 0.15 0.19 0.15 0.15 0.18 0.16 0.13 0.11 0.10 0.11 0.12 0.11
0.00 0.01 0.01 0.01 0.00 0.00 0.01 0.02 0.02 0.01 0.01 0.01 0.00 0.00 0.00 0.01 0.01 0.01 0.02 0.03 0.03 0.03 0.02 0.02 0.02 0.02 0.02 0.04 0.05 0.06 0.06 0.06 0.06 0.05 0.05 0.05 0.06 0.11 0.15 0.14 0.11 0.11 0.08 0.06 0.07 0.08 0.07 0.06 0.06
0.01 0.01 0.02 0.02 0.01 0.00 0.01 0.03 0.01 0.01 0.01 0.00 0.00 0.00 0.00 0.00 0.01 0.02 0.02 0.03 0.03 0.02 0.02 0.02 0.02 0.02 0.02 0.03 0.05 0.05 0.06 0.05 0.05 0.05 0.03 0.04 0.06 0.07 0.09 0.10 0.09 0.08 0.06 0.06 0.07 0.06 0.05 0.06 0.05
0.02 0.03 0.04 0.03 0.01 0.01 0.01 0.02 0.02 0.01 0.00 0.00 0.00 0.00 0.00 0.01 0.01 0.02 0.03 0.02 0.02 0.02 0.01 0.02 0.03 0.03 0.03 0.03 0.04 0.04 0.06 0.05 0.05 0.04 0.03 0.03 0.03 0.03 0.05 0.06 0.07 0.07 0.08 0.07 0.05 0.04 0.05 0.05 0.04
0.07 0.05 0.02 0.01 0.00 0.00 0.01 0.03 0.02 0.01 0.01 0.00 0.00 0.01 0.01 0.01 0.01 0.02 0.03 0.03 0.02 0.01 0.02 0.02 0.03 0.03 0.03 0.04 0.04 0.04 0.05 0.05 0.03 0.03 0.03 0.02 0.01 0.03 0.05 0.04 0.06 0.06 0.06 0.06 0.04 0.04 0.05 0.05 0.04
0.02 0.01 0.01 0.01 0.00 0.00 0.01 0.03 0.03 0.01 0.00 0.00 0.01 0.02 0.02 0.01 0.01 0.01 0.01 0.01 0.02 0.02 0.02 0.04 0.04 0.03 0.04 0.05 0.04 0.04 0.03 0.03 0.02 0.02 0.01 0.01 0.01 0.02 0.03 0.03 0.05 0.06 0.06 0.06 0.05 0.04 0.03 0.04 0.04
0.01 0.00 0.00 0.00 0.00 0.01 0.01 0.02 0.06 0.03 0.01 0.00 0.01 0.01 0.01 0.01 0.01 0.01 0.01 0.00 0.01 0.01 0.03 0.03 0.03 0.03 0.03 0.03 0.03 0.03 0.02 0.01 0.01 0.01 0.02 0.01 0.01 0.01 0.02 0.03 0.03 0.04 0.05 0.06 0.05 0.05 0.04 0.03 0.05
0.00 0.00 0.01 0.00 0.00 0.01 0.02 0.06 0.08 0.03 0.01 0.00 0.00 0.02 0.03 0.03 0.01 0.01 0.01 0.01 0.01 0.01 0.01 0.02 0.04 0.03 0.02 0.02 0.03 0.02 0.02 0.02 0.03 0.03 0.04 0.05 0.03 0.02 0.02 0.03 0.03 0.04 0.03 0.05 0.05 0.04 0.05 0.05 0.06
0.00 0.00 0.00 0.00 0.01 0.02 0.02 0.08 0.12 0.05 0.01 0.00 0.00 0.01 0.01 0.05 0.04 0.01 0.02 0.02 0.02 0.01 0.01 0.04 0.04 0.04 0.03 0.03 0.03 0.03 0.03 0.04 0.04 0.05 0.05 0.07 0.05 0.04 0.03 0.03 0.04 0.05 0.04 0.04 0.04 0.04 0.04 0.05 0.06
0.00 0.00 0.00 0.00 0.01 0.02 0.01 0.03 0.06 0.05 0.02 0.01 0.00 0.00 0.01 0.02 0.01 0.02 0.01 0.01 0.01 0.01 0.01 0.02 0.03 0.03 0.03 0.03 0.03 0.04 0.03 0.04 0.04 0.04 0.03 0.04 0.03 0.03 0.03 0.05 0.07 0.07 0.05 0.03 0.03 0.03 0.03 0.04 0.04
0.00 0.00 0.00 0.01 0.01 0.03 0.01 0.02 0.05 0.06 0.03 0.01 0.00 0.00 0.00 0.00 0.00 0.01 0.00 0.00 0.01 0.01 0.01 0.01 0.02 0.02 0.01 0.02 0.01 0.02 0.03 0.03 0.03 0.04 0.04 0.04 0.04 0.05 0.05 0.04 0.04 0.04 0.03 0.02 0.02 0.02 0.02 0.02 0.03
0.01 0.03 0.03 0.05 0.05 0.04 0.01 0.01 0.02 0.01 0.00 0.00 0.00 0.00 0.00 0.00 0.00 0.00 0.00 0.00 0.01 0.01 0.01 0.01 0.02 0.02 0.02 0.02 0.02 0.02 0.03 0.03 0.03 0.03 0.04 0.04 0.03 0.04 0.03 0.03 0.03 0.03 0.03 0.03 0.03 0.02 0.02 0.02 0.03
0.01 0.01 0.03 0.05 0.06 0.04 0.02 0.02 0.02 0.00 0.00 0.00 0.00 0.00 0.00 0.00 0.00 0.00 0.00 0.00 0.01 0.01 0.02 0.02 0.02 0.03 0.03 0.02 0.02 0.03 0.03 0.03 0.03 0.03 0.03 0.03 0.03 0.02 0.02 0.03 0.03 0.03 0.02 0.03 0.05 0.03 0.03 0.04 0.04
0.00 0.01 0.01 0.02 0.01 0.02 0.01 0.02 0.02 0.01 0.00 0.00 0.00 0.00 0.00 0.00 0.00 0.00 0.00 0.00 0.01 0.01 0.01 0.02 0.02 0.03 0.03 0.02 0.02 0.02 0.03 0.03 0.04 0.04 0.04 0.03 0.03 0.03 0.04 0.04 0.04 0.04 0.05 0.05 0.04 0.03 0.04 0.05 0.04
0.00 0.00 0.01 0.01 0.01 0.02 0.02 0.02 0.02 0.02 0.00 0.00 0.00 0.00 0.00 0.00 0.00 0.00 0.00 0.00 0.01 0.01 0.01 0.01 0.02 0.01 0.02 0.02 0.02 0.02 0.03 0.03 0.03 0.04 0.04 0.04 0.04 0.04 0.05 0.06 0.05 0.05 0.06 0.07 0.05 0.04 0.04 0.04 0.04
0.00 0.01 0.01 0.01 0.01 0.02 0.03 0.02 0.02 0.01 0.00 0.00 0.00 0.00 0.00 0.00 0.00 0.00 0.00 0.00 0.00 0.00 0.00 0.00 0.01 0.01 0.01 0.01 0.02 0.02 0.03 0.04 0.04 0.05 0.04 0.05 0.05 0.06 0.06 0.05 0.04 0.04 0.05 0.06 0.05 0.05 0.06 0.05 0.05
0.00 0.00 0.00 0.00 0.01 0.01 0.02 0.01 0.00 0.01 0.00 0.00 0.00 0.00 0.00 0.00 0.00 0.00 0.00 0.00 0.00 0.00 0.00 0.00 0.01 0.01 0.01 0.01 0.02 0.02 0.03 0.04 0.05 0.05 0.05 0.06 0.07 0.06 0.04 0.03 0.03 0.03 0.05 0.05 0.05 0.05 0.04 0.04 0.04
MSLP
1004.29 1005.06 1005.95 1006.80 1007.48 1007.91 1008.10 1008.11 1008.04 1008.02 1008.12 1008.36 1008.68 1009.01 1009.20 1009.15 1008.79 1008.09 1007.11 1005.90 1004.53 1003.07 1001.53 999.92 998.24 996.51 994.82 993.31 992.15 991.51 991.54 992.32 993.79 995.77 998.05 1000.35 1002.42 1004.11 1005.35 1006.16 1006.68 1007.07 1007.47 1007.98 1008.60 1009.30 1010.01 1010.61 1011.07
1004.29 1005.19 1006.15 1007.00 1007.63 1007.98 1008.06 1007.96 1007.79 1007.68 1007.71 1007.90 1008.20 1008.50 1008.68 1008.63 1008.29 1007.62 1006.69 1005.54 1004.25 1002.88 1001.44 999.94 998.37 996.77 995.22 993.84 992.79 992.25 992.35 993.14 994.57 996.48 998.64 1000.80 1002.73 1004.29 1005.42 1006.16 1006.65 1007.05 1007.48 1008.02 1008.68 1009.41 1010.12 1010.72 1011.17
1004.36 1005.36 1006.37 1007.21 1007.79 1008.05 1008.03 1007.83 1007.56 1007.35 1007.30 1007.41 1007.63 1007.88 1008.02 1007.96 1007.63 1007.02 1006.16 1005.14 1004.00 1002.80 1001.55 1000.25 998.88 997.49 996.12 994.91 993.99 993.54 993.66 994.41 995.74 997.48 999.44 1001.38 1003.10 1004.48 1005.48 1006.15 1006.61 1007.02 1007.48 1008.06 1008.76 1009.51 1010.23 1010.82 1011.25
1004.47 1005.54 1006.56 1007.39 1007.92 1008.12 1008.03 1007.75 1007.40 1007.12 1006.98 1007.00 1007.14 1007.30 1007.38 1007.28 1006.96 1006.41 1005.67 1004.81 1003.88 1002.91 1001.91 1000.87 999.77 998.61 997.47 996.43 995.64 995.24 995.34 996.00 997.15 998.67 1000.37 1002.05 1003.53 1004.72 1005.58 1006.18 1006.63 1007.05 1007.55 1008.17 1008.89 1009.65 1010.36 1010.93 1011.33
1004.60 1005.69 1006.70 1007.50 1007.99 1008.16 1008.03 1007.72 1007.35 1007.02 1006.82 1006.76 1006.80 1006.87 1006.87 1006.73 1006.41 1005.93 1005.32 1004.64 1003.94 1003.24 1002.53 1001.78 1000.96 1000.07 999.14 998.28 997.59 997.22 997.26 997.78 998.72 999.98 1001.40 1002.80 1004.05 1005.05 1005.79 1006.33 1006.77 1007.22 1007.75 1008.39 1009.12 1009.86 1010.53 1011.06 1011.42
1004.71 1005.77 1006.73 1007.49 1007.96 1008.12 1008.01 1007.72 1007.37 1007.05 1006.82 1006.71 1006.67 1006.64 1006.56 1006.37 1006.05 1005.63 1005.15 1004.67 1004.21 1003.78 1003.36 1002.91 1002.37 1001.73 1001.01 1000.30 999.70 999.34 999.31 999.66 1000.39 1001.39 1002.53 1003.67 1004.69 1005.52 1006.16 1006.66 1007.10 1007.56 1008.12 1008.76 1009.47 1010.17 1010.78 1011.23 1011.53
1004.78 1005.75 1006.64 1007.34 1007.79 1007.97 1007.91 1007.70 1007.42 1007.15 1006.94 1006.80 1006.70 1006.60 1006.45 1006.22 1005.91 1005.55 1005.19 1004.88 1004.64 1004.47 1004.32 1004.13 1003.85 1003.44 1002.91 1002.34 1001.82 1001.46 1001.36 1001.57 1002.10 1002.86 1003.76 1004.67 1005.50 1006.19 1006.75 1007.21 1007.64 1008.11 1008.66 1009.29 1009.94 1010.57 1011.09 1011.46 1011.68
1004.82 1005.67 1006.44 1007.07 1007.49 1007.70 1007.72 1007.61 1007.44 1007.25 1007.10 1006.97 1006.85 1006.70 1006.50 1006.24 1005.94 1005.64 1005.38 1005.23 1005.18 1005.22 1005.29 1005.33 1005.26 1005.04 1004.69 1004.24 1003.80 1003.47 1003.33 1003.44 1003.81 1004.39 1005.09 1005.81 1006.49 1007.06 1007.54 1007.96 1008.37 1008.83 1009.35 1009.93 1010.52 1011.05 1011.48 1011.76 1011.90
1004.86 1005.54 1006.18 1006.72 1007.11 1007.34 1007.44 1007.44 1007.39 1007.32 1007.24 1007.15 1007.04 1006.87 1006.65 1006.38 1006.09 1005.84 1005.68 1005.64 1005.74 1005.93 1006.17 1006.38 1006.47 1006.41 1006.21 1005.89 1005.55 1005.27 1005.13 1005.20 1005.48 1005.93 1006.49 1007.07 1007.62 1008.10 1008.51 1008.88 1009.25 1009.67 1010.15 1010.66 1011.17 1011.62 1011.95 1012.15 1012.22
1004.92 1005.45 1005.95 1006.38 1006.71 1006.96 1007.12 1007.22 1007.28 1007.32 1007.32 1007.29 1007.20 1007.05 1006.83 1006.58 1006.32 1006.12 1006.03 1006.08 1006.26 1006.55 1006.89 1007.20 1007.41 1007.47 1007.39 1007.20 1006.97 1006.78 1006.70 1006.79 1007.04 1007.42 1007.89 1008.38 1008.83 1009.23 1009.57 1009.88 1010.21 1010.58 1010.99 1011.44 1011.88 1012.25 1012.51 1012.65 1012.68
1005.08 1005.46 1005.82 1006.13 1006.40 1006.63 1006.83 1007.00 1007.15 1007.26 1007.35 1007.37 1007.33 1007.21 1007.03 1006.80 1006.59 1006.44 1006.40 1006.49 1006.72 1007.05 1007.42 1007.77 1008.04 1008.19 1008.21 1008.14 1008.04 1007.97 1007.99 1008.14 1008.42 1008.80 1009.23 1009.65 1010.04 1010.36 1010.64 1010.89 1011.16 1011.47 1011.83 1012.22 1012.61 1012.93 1013.16 1013.27 1013.28
1005.35 1005.62 1005.85 1006.06 1006.25 1006.45 1006.64 1006.84 1007.03 1007.20 1007.33 1007.41 1007.41 1007.34 1007.21 1007.04 1006.88 1006.79 1006.78 1006.89 1007.12 1007.44 1007.79 1008.13 1008.41 1008.60 1008.70 1008.74 1008.77 1008.83 1008.98 1009.23 1009.57 1009.98 1010.40 1010.80 1011.13 1011.40 1011.62 1011.81 1012.03 1012.29 1012.61 1012.97 1013.33 1013.65 1013.88 1014.00 1014.02
1005.76 1005.94 1006.07 1006.18 1006.29 1006.43 1006.59 1006.77 1006.97 1007.15 1007.31 1007.42 1007.46 1007.45 1007.38 1007.28 1007.19 1007.15 1007.18 1007.30 1007.50 1007.77 1008.06 1008.35 1008.59 1008.79 1008.94 1009.07 1009.21 1009.41 1009.68 1010.04 1010.46 1010.91 1011.35 1011.73 1012.03 1012.26 1012.43 1012.58 1012.76 1012.99 1013.29 1013.65 1014.02 1014.36 1014.63 1014.79 1014.85
1006.25 1006.37 1006.43 1006.46 1006.50 1006.57 1006.67 1006.81 1006.97 1007.14 1007.28 1007.40 1007.48 1007.52 1007.52 1007.51 1007.51 1007.54 1007.61 1007.73 1007.89 1008.09 1008.31 1008.51 1008.70 1008.87 1009.04 1009.23 1009.47 1009.77 1010.15 1010.60 1011.09 1011.58 1012.02 1012.39 1012.68 1012.87 1013.02 1013.15 1013.31 1013.54 1013.84 1014.21 1014.61 1015.00 1015.33 1015.56 1015.68
1006.74 1006.83 1006.83 1006.81 1006.79 1006.80 1006.84 1006.92 1007.02 1007.13 1007.25 1007.36 1007.45 1007.54 1007.63 1007.71 1007.80 1007.91 1008.03 1008.17 1008.31 1008.45 1008.59 1008.71 1008.84 1008.97 1009.13 1009.35 1009.64 1010.01 1010.46 1010.96 1011.49 1011.99 1012.44 1012.80 1013.06 1013.24 1013.37 1013.50 1013.66 1013.90 1014.23 1014.62 1015.07 1015.51 1015.90 1016.21 1016.40
1007.14 1007.20 1007.18 1007.12 1007.07 1007.03 1007.02 1007.03 1007.06 1007.10 1007.17 1007.25 1007.35 1007.48 1007.64 1007.83 1008.03 1008.23 1008.43 1008.60 1008.75 1008.85 1008.93 1008.99 1009.05 1009.14 1009.29 1009.51 1009.82 1010.21 1010.68 1011.20 1011.73 1012.22 1012.64 1012.97 1013.22 1013.39 1013.52 1013.66 1013.85 1014.11 1014.45 1014.88 1015.35 1015.84 1016.29 1016.65 1016.91
1007.38 1007.41 1007.38 1007.31 1007.25 1007.19 1007.14 1007.09 1007.05 1007.02 1007.01 1007.05 1007.14 1007.30 1007.53 1007.81 1008.12 1008.44 1008.73 1008.97 1009.15 1009.26 1009.32 1009.34 1009.37 1009.43 1009.55 1009.76 1010.06 1010.45 1010.90 1011.39 1011.87 1012.32 1012.69 1012.99 1013.21 1013.38 1013.52 1013.68 1013.89 1014.17 1014.54 1014.97 1015.46 1015.96 1016.43 1016.83 1017.14
1007.41 1007.42 1007.39 1007.34 1007.30 1007.25 1007.18 1007.09 1006.97 1006.86 1006.77 1006.75 1006.81 1006.98 1007.25 1007.62 1008.04 1008.47 1008.87 1009.21 1009.45 1009.61 1009.69 1009.72 1009.75 1009.80 1009.92 1010.12 1010.40 1010.76 1011.16 1011.59 1012.00 1012.37 1012.68 1012.93 1013.12 1013.29 1013.44 1013.62 1013.86 1014.15 1014.51 1014.94 1015.40 1015.87 1016.32 1016.72 1017.06
1007.25 1007.24 1007.24 1007.24 1007.25 1007.24 1007.17 1007.05 1006.87 1006.66 1006.48 1006.36 1006.37 1006.52 1006.82 1007.24 1007.76 1008.31 1008.82 1009.27 1009.61 1009.84 1009.99 1010.07 1010.13 1010.21 1010.34 1010.54 1010.81 1011.13 1011.48 1011.83 1012.16 1012.44 1012.68 1012.87 1013.04 1013.19 1013.36 1013.56 1013.80 1014.10 1014.44 1014.82 1015.22 1015.62 1016.02 1016.39 1016.72
1006.96 1006.96 1007.02 1007.11 1007.20 1007.24 1007.20 1007.05 1006.80 1006.49 1006.19 1005.97 1005.88 1005.98 1006.27 1006.73 1007.31 1007.95 1008.58 1009.14 1009.59 1009.92 1010.15 1010.31 1010.43 1010.57 1010.74 1010.97 1011.24 1011.53 1011.84 1012.12 1012.37 1012.58 1012.74 1012.88 1013.02 1013.16 1013.34 1013.55 1013.80 1014.08 1014.38 1014.69 1015.00 1015.30 1015.60 1015.90 1016.20
1006.65 1006.70 1006.85 1007.06 1007.25 1007.37 1007.36 1007.19 1006.86 1006.44 1006.01 1005.64 1005.44 1005.45 1005.69 1006.15 1006.77 1007.47 1008.19 1008.84 1009.39 1009.82 1010.15 1010.40 1010.61 1010.83 1011.07 1011.34 1011.63 1011.93 1012.21 1012.45 1012.65 1012.79 1012.90 1013.00 1013.11 1013.24 1013.42 1013.64 1013.88 1014.14 1014.38 1014.61 1014.82 1015.00 1015.18 1015.38 1015.62
1006.41 1006.56 1006.85 1007.20 1007.52 1007.73 1007.75 1007.54 1007.14 1006.59 1006.00 1005.49 1005.14 1005.03 1005.20 1005.62 1006.23 1006.97 1007.73 1008.46 1009.09 1009.60 1010.02 1010.36 1010.66 1010.96 1011.27 1011.61 1011.95 1012.28 1012.57 1012.80 1012.96 1013.07 1013.15 1013.22 1013.31 1013.44 1013.62 1013.83 1014.07 1014.29 1014.48 1014.63 1014.73 1014.80 1014.86 1014.95 1015.12
1006.31 1006.61 1007.06 1007.57 1008.03 1008.33 1008.37 1008.14 1007.64 1006.96 1006.22 1005.54 1005.05 1004.81 1004.88 1005.24 1005.82 1006.55 1007.34 1008.09 1008.77 1009.34 1009.81 1010.22 1010.59 1010.96 1011.35 1011.76 1012.17 1012.55 1012.87 1013.12 1013.29 1013.40 1013.46 1013.52 1013.61 1013.73 1013.91 1014.12 1014.34 1014.53 1014.68 1014.76 1014.77 1014.74 1014.70 1014.69 1014.77
1006.35 1006.83 1007.47 1008.15 1008.73 1009.10 1009.17 1008.90 1008.32 1007.52 1006.64 1005.82 1005.19 1004.83 1004.81 1005.09 1005.63 1006.33 1007.10 1007.85 1008.53 1009.12 1009.62 1010.05 1010.47 1010.89 1011.34 1011.82 1012.29 1012.73 1013.11 1013.40 1013.60 1013.73 1013.81 1013.87 1013.96 1014.08 1014.25 1014.45 1014.66 1014.83 1014.95 1014.98 1014.94 1014.83 1014.71 1014.62 1014.62
1006.48 1007.15 1007.97 1008.80 1009.50 1009.93 1010.00 1009.70 1009.05 1008.16 1007.18 1006.25 1005.52 1005.08 1004.98 1005.20 1005.69 1006.35 1007.09 1007.81 1008.46 1009.03 1009.51 1009.95 1010.37 1010.81 1011.30 1011.81 1012.34 1012.84 1013.28 1013.63 1013.88 1014.04 1014.15 1014.23 1014.31 1014.43 1014.60 1014.79 1014.98 1015.15 1015.24 1015.26 1015.19 1015.05 1014.88 1014.74 1014.69
1006.63 1007.48 1008.44 1009.38 1010.14 1010.61 1010.69 1010.36 1009.68 1008.74 1007.71 1006.74 1005.97 1005.50 1005.36 1005.55 1006.01 1006.63 1007.32 1008.00 1008.61 1009.12 1009.56 1009.95 1010.35 1010.78 1011.26 1011.80 1012.36 1012.90 1013.39 1013.80 1014.10 1014.31 1014.45 1014.55 1014.65 1014.76 1014.91 1015.09 1015.27 1015.43 1015.52 1015.54 1015.47 1015.34 1015.16 1015.01 1014.92
1006.73 1007.69 1008.73 1009.72 1010.51 1010.98 1011.05 1010.71 1010.03 1009.11 1008.10 1007.16 1006.42 1005.98 1005.87 1006.07 1006.52 1007.12 1007.77 1008.39 1008.94 1009.39 1009.76 1010.10 1010.44 1010.83 1011.29 1011.82 1012.38 1012.95 1013.48 1013.93 1014.28 1014.54 1014.71 1014.83 1014.94 1015.05 1015.19 1015.35 1015.52 1015.66 1015.76 1015.79 1015.75 1015.65 1015.50 1015.36 1015.27
1006.74 1007.73 1008.77 1009.74 1010.49 1010.92 1010.97 1010.65 1010.00 1009.15 1008.24 1007.41 1006.78 1006.43 1006.40 1006.65 1007.12 1007.71 1008.34 1008.92 1009.41 1009.80 1010.10 1010.37 1010.65 1010.98 1011.40 1011.89 1012.45 1013.02 1013.57 1014.05 1014.44 1014.73 1014.94 1015.08 1015.20 1015.31 1015.43 1015.57 1015.72 1015.86 1015.96 1016.02 1016.01 1015.95 1015.85 1015.75 1015.68
1006.66 1007.58 1008.53 1009.39 1010.04 1010.40 1010.43 1010.13 1009.56 1008.83 1008.07 1007.41 1006.96 1006.76 1006.85 1007.18 1007.70 1008.31 1008.92 1009.47 1009.91 1010.24 1010.49 1010.70 1010.93 1011.21 1011.57 1012.03 1012.55 1013.11 1013.66 1014.16 1014.58 1014.90 1015.15 1015.32 1015.45 1015.56 1015.67 1015.79 1015.92 1016.05 1016.15 1016.22 1016.25 1016.24 1016.20 1016.15 1016.13
1006.55 1007.32 1008.09 1008.77 1009.27 1009.52 1009.50 1009.23 1008.76 1008.19 1007.63 1007.19 1006.93 1006.92 1007.14 1007.58 1008.15 1008.78 1009.39 1009.92 1010.33 1010.64 1010.85 1011.02 1011.21 1011.45 1011.78 1012.20 1012.69 1013.23 1013.77 1014.28 1014.72 1015.08 1015.35 1015.55 1015.71 1015.83 1015.94 1016.05 1016.17 1016.28 1016.38 1016.46 1016.52 1016.55 1016.56 1016.57 1016.60
Thickness
5836 5838 5838 5829 5810 5802 5806 5823 5833 5832 5834 5842 5843 5835 5822 5813 5801 5789 5816 5828 5826 5821 5817 5814 5812 5813 5813 5814 5813 5813 5813 5811 5809 5808 5808 5807 5806 5806 5806 5806 5805 5803 5801 5800 5798 5796 5794 5793 5792
5845 5845 5836 5821 5805 5798 5808 5826 5829 5833 5841 5847 5843 5834 5822 5815 5821 5817 5822 5827 5828 5823 5818 5815 5812 5813 5813 5813 5813 5813 5812 5810 5809 5807 5807 5806 5806 5806 5806 5806 5805 5803 5801 5799 5798 5796 5794 5793 5791
5846 5848 5828 5817 5813 5810 5814 5831 5835 5843 5851 5846 5835 5832 5821 5814 5821 5821 5826 5830 5828 5823 5819 5814 5812 5812 5812 5812 5812 5812 5811 5809 5808 5807 5806 5805 5804 5804 5804 5804 5804 5802 5800 5799 5798 5797 5794 5792 5790
5847 5840 5831 5822 5818 5832 5835 5839 5845 5842 5845 5846 5837 5822 5822 5829 5827 5828 5832 5832 5827 5823 5820 5814 5813 5812 5812 5811 5811 5811 5810 5809 5807 5806 5805 5804 5804 5803 5803 5802 5802 5801 5799 5798 5797 5796 5794 5792 5790
5849 5832 5821 5819 5826 5840 5848 5851 5851 5840 5838 5840 5833 5816 5813 5829 5835 5835 5834 5832 5827 5824 5821 5815 5813 5812 5812 5811 5811 5810 5810 5809 5807 5806 5805 5804 5803 5802 5802 5801 5801 5799 5797 5796 5795 5795 5794 5791 5789
5834 5833 5814 5816 5826 5840 5851 5857 5852 5842 5839 5839 5831 5817 5813 5830 5832 5833 5834 5832 5830 5825 5822 5817 5815 5814 5813 5812 5811 5810 5809 5808 5807 5806 5804 5803 5803 5803 5801 5800 5799 5797 5794 5794 5794 5793 5791 5789 5788
5832 5825 5821 5829 5829 5833 5847 5859 5850 5841 5837 5838 5838 5818 5815 5826 5834 5836 5835 5832 5831 5828 5824 5821 5818 5815 5814 5813 5811 5810 5809 5809 5807 5806 5804 5803 5802 5803 5801 5799 5797 5795 5794 5793 5792 5790 5789 5788 5787
5856 5839 5830 5834 5831 5832 5852 5857 5855 5846 5839 5850 5845 5820 5812 5825 5837 5837 5834 5831 5830 5829 5826 5823 5822 5819 5816 5814 5812 5810 5809 5808 5807 5806 5804 5802 5801 5801 5799 5797 5795 5795 5794 5792 5790 5789 5788 5787 5786
5866 5837 5827 5836 5837 5840 5856 5851 5854 5858 5848 5845 5845 5835 5831 5836 5837 5832 5828 5825 5825 5826 5826 5825 5822 5821 5819 5817 5814 5811 5810 5808 5807 5805 5804 5802 5801 5800 5798 5797 5795 5794 5793 5791 5789 5788 5787 5786 5786
5859 5833 5836 5854 5858 5854 5857 5852 5851 5847 5837 5834 5834 5836 5839 5836 5832 5827 5823 5820 5820 5821 5824 5825 5822 5821 5820 5818 5815 5813 5812 5809 5807 5806 5804 5802 5802 5800 5798 5796 5795 5793 5792 5790 5789 5788 5787 5786 5786
5860 5845 5856 5864 5869 5866 5858 5855 5857 5843 5829 5832 5828 5830 5834 5832 5829 5826 5823 5821 5821 5823 5822 5823 5822 5820 5818 5816 5816 5814 5812 5810 5808 5806 5804 5803 5802 5800 5798 5797 5795 5793 5791 5790 5789 5788 5787 5787 5787
5862 5861 5868 5868 5871 5867 5860 5857 5851 5845 5840 5847 5843 5840 5835 5830 5828 5827 5823 5822 5822 5822 5821 5822 5822 5818 5816 5815 5814 5814 5812 5809 5807 5805 5804 5802 5800 5799 5797 5796 5795 5793 5792 5791 5790 5788 5787 5787 5787
5861 5862 5870 5875 5873 5869 5861 5854 5849 5846 5852 5853 5847 5841 5835 5832 5831 5830 5829 5826 5823 5820 5820 5819 5818 5816 5815 5814 5814 5813 5811 5809 5807 5805 5803 5802 5799 5797 5796 5794 5793 5792 5792 5791 5789 5788 5786 5785 5786
5866 5865 5865 5870 5870 5868 5852 5848 5847 5845 5854 5848 5842 5837 5836 5833 5832 5829 5826 5823 5821 5820 5819 5819 5818 5815 5814 5813 5811 5811 5810 5808 5807 5804 5803 5801 5799 5796 5794 5792 5791 5791 5790 5790 5788 5786 5785 5784 5784
5869 5855 5856 5864 5868 5866 5856 5835 5838 5851 5853 5843 5839 5837 5835 5834 5833 5829 5826 5824 5822 5820 5819 5818 5818 5815 5813 5812 5811 5811 5809 5808 5805 5803 5801 5800 5798 5796 5795 5792 5791 5790 5790 5789 5787 5786 5785 5784 5782
5855 5842 5832 5851 5866 5866 5847 5816 5839 5854 5850 5841 5840 5837 5834 5833 5833 5832 5830 5826 5824 5821 5818 5818 5819 5814 5812 5811 5810 5810 5809 5807 5804 5802 5800 5798 5797 5795 5794 5792 5791 5790 5789 5788 5786 5784 5782 5780 5780
5831 5821 5824 5840 5864 5864 5847 5826 5842 5855 5850 5842 5840 5838 5835 5832 5832 5832 5832 5828 5825 5821 5818 5815 5814 5812 5811 5810 5809 5808 5806 5805 5803 5801 5799 5797 5796 5795 5793 5791 5790 5790 5788 5787 5786 5783 5781 5779 5779
5816 5823 5829 5836 5858 5857 5843 5835 5844 5854 5853 5846 5843 5840 5835 5832 5831 5833 5833 5830 5826 5822 5818 5815 5813 5811 5810 5809 5807 5805 5804 5803 5802 5800 5798 5796 5795 5794 5793 5792 5790 5789 5787 5785 5783 5781 5781 5780 5779
5838 5833 5830 5844 5864 5854 5843 5841 5845 5852 5851 5846 5844 5840 5836 5834 5837 5836 5834 5831 5826 5821 5817 5813 5810 5809 5807 5804 5802 5799 5798 5798 5798 5798 5796 5795 5794 5793 5792 5791 5789 5787 5784 5782 5782 5780 5779 5778 5779
5843 5834 5834 5846 5862 5853 5839 5838 5844 5848 5849 5848 5844 5841 5836 5833 5833 5832 5832 5828 5823 5819 5816 5813 5809 5808 5806 5804 5802 5800 5799 5797 5798 5797 5795 5793 5792 5791 5791 5789 5787 5785 5783 5781 5781 5779 5776 5777 5778
5841 5838 5839 5839 5849 5853 5838 5825 5834 5846 5852 5851 5849 5847 5841 5835 5831 5829 5828 5827 5823 5818 5815 5813 5809 5807 5805 5804 5803 5800 5798 5795 5793 5791 5790 5790 5789 5789 5787 5786 5785 5784 5782 5780 5779 5779 5775 5772 5775
5831 5852 5851 5846 5835 5827 5835 5803 5819 5832 5839 5844 5846 5846 5842 5840 5836 5832 5828 5825 5823 5820 5817 5812 5808 5806 5804 5803 5799 5795 5791 5788 5789 5789 5789 5788 5788 5787 5786 5785 5783 5781 5780 5778 5778 5778 5776 5773 5769
5843 5858 5852 5848 5838 5828 5832 5816 5814 5829 5825 5835 5842 5844 5843 5841 5837 5832 5830 5826 5825 5823 5817 5812 5807 5804 5802 5801 5798 5794 5791 5789 5789 5789 5787 5785 5786 5785 5784 5783 5781 5778 5776 5776 5776 5775 5774 5772 5770
5858 5853 5847 5843 5833 5805 5824 5818 5806 5823 5829 5836 5842 5844 5843 5841 5838 5833 5831 5828 5824 5822 5818 5812 5806 5802 5801 5798 5796 5792 5788 5787 5785 5784 5783 5782 5782 5782 5782 5780 5778 5776 5774 5774 5774 5773 5771 5770 5769
5851 5830 5806 5796 5796 5798 5830 5824 5817 5839 5850 5847 5844 5843 5843 5841 5836 5831 5827 5824 5821 5818 5815 5811 5804 5799 5798 5796 5793 5790 5787 5785 5782 5781 5780 5779 5778 5778 5778 5778 5775 5773 5773 5772 5771 5769 5768 5767 5765
5841 5832 5799 5782 5786 5804 5822 5814 5828 5851 5858 5857 5853 5849 5844 5840 5836 5831 5827 5823 5820 5817 5813 5808 5802 5797 5795 5793 5790 5788 5786 5784 5782 5781 5779 5777 5776 5775 5775 5773 5772 5771 5770 5769 5768 5766 5765 5763 5761
5835 5834 5842 5819 5814 5807 5816 5823 5831 5849 5849 5850 5848 5844 5839 5836 5833 5830 5827 5823 5818 5815 5811 5807 5801 5796 5793 5791 5788 5785 5784 5781 5780 5779 5777 5775 5773 5773 5771 5769 5767 5766 5765 5764 5763 5761 5760 5758 5757
5851 5845 5833 5815 5795 5790 5803 5807 5810 5822 5831 5840 5841 5838 5836 5834 5831 5828 5825 5822 5818 5814 5809 5805 5800 5795 5792 5789 5785 5783 5780 5779 5777 5775 5772 5770 5769 5768 5766 5764 5763 5761 5760 5759 5758 5756 5755 5753 5752
5840 5836 5832 5824 5816 5795 5784 5799 5835 5831 5837 5838 5839 5837 5834 5831 5828 5824 5822 5819 5816 5811 5806 5801 5797 5792 5789 5786 5783 5780 5777 5775 5773 5770 5768 5767 5765 5763 5761 5759 5758 5756 5755 5754 5753 5752 5751 5748 5747
5851 5844 5838 5815 5808 5811 5799 5804 5851 5848 5846 5840 5838 5835 5833 5830 5827 5823 5819 5814 5810 5805 5801 5796 5793 5789 5785 5783 5779 5776 5773 5771 5768 5765 5764 5762 5760 5758 5756 5754 5752 5751 5750 5749 5747 5746 5745 5743 5741